Back to catalog

STARLINK-3756

AliveCommunicationsVLEO
NORAD 52309·PAYLOAD·🇺🇸 United States

Launched Apr 21, 2022 from Cape Canaveral Space Force Station

Loading…

Next Passes (next 24 hours)

TLE

FreshSource: CelesTrak SupGP

Epoch: Sep 14, 2026, 20:45 UTC

1 52309C 22041BA  26257.86506944 -.00028744  00000+0 -92445-3 0  2572
2 52309  53.1572 306.0054 0001059  83.1126 137.9569 15.31712390    11

Track STARLINK-3756 in real time with AllMySat

Download on the App Store